Marina — SXJE — position and weather

sailwx.info

Track history (hours):
 
Tides and Currents Weather Stations Pressure Air Temp Water Temp Dewpoint Dewpoint Depression Visibility Wind Speed Wind Dir Waves Ship Positions

Marina

Last reported at 2014-Nov-29 21:32 UTC. Time now 2014-Dec-22 06:23 UTC.
Position N 36°33' E 015°23'.
Warning: this ship's position is 22 days out of date.

Length 225 m; draft 13.9 m.

Type: Cargo ship. MMSI: 239651000.

Date/timePositionNaut miles runAvg speedWind from/ knotsBaromVisibWave heightAir tempDewpointWater temp
2014-Nov-29 21:32N 36°33' E 015°23'1110.8
2014-Nov-29 20:33N 36°31' E 015°10'1111.0
2014-Nov-29 19:33N 36°29' E 014°57'1111.1
2014-Nov-29 18:33N 36°26' E 014°43'1110.7
2014-Nov-29 17:33N 36°26' E 014°30'1111.2
2014-Nov-29 16:33N 36°29' E 014°17'1111.3
2014-Nov-29 15:33N 36°32' E 014°03'1111.3
2014-Nov-29 14:33N 36°36' E 013°50'1111.1
2014-Nov-29 13:32N 36°38' E 013°36'1110.8
2014-Nov-29 12:33N 36°41' E 013°23'1111.1
2014-Nov-29 11:33N 36°44' E 013°10'1111.0
2014-Nov-29 10:33N 36°47' E 012°57'1110.7
2014-Nov-29 09:33N 36°50' E 012°44'1610.8
2014-Nov-29 08:06N 36°54' E 012°25'41211.6
2014-Nov-27 20:32N 37°09' E 003°50'43912.4
2014-Nov-26 09:17N 35°60' W 005°10'1216.2
2014-Nov-26 08:33N 35°58' W 005°24'  
2014-Nov-23 19:05N 35°53' W 019°38'610.8
2014-Nov-23 18:33N 35°53' W 019°45'1610.8
2014-Nov-23 17:07N 35°53' W 020°04'610.5
2014-Nov-23 16:32N 35°53' W 020°11'1010.3
2014-Nov-23 15:32N 35°53' W 020°24'1010.4
2014-Nov-23 14:33N 35°53' W 020°37'1210.3
2014-Nov-23 13:23N 35°53' W 020°52'1010.3
2014-Nov-23 12:23N 35°53' W 021°04'910.3
2014-Nov-23 11:32N 35°53' W 021°15'1010.3
2014-Nov-23 10:32N 35°53' W 021°28'1110.3
2014-Nov-23 09:27N 35°53' W 021°42'1210.1
2014-Nov-23 08:14N 35°53' W 021°57'810.2
2014-Nov-23 07:25N 35°53' W 022°07'1110.5
2014-Nov-23 06:24N 35°53' W 022°20'1110.4
2014-Nov-23 05:21N 35°53' W 022°34'1110.8
2014-Nov-23 04:19N 35°53' W 022°48'1010.9
2014-Nov-23 03:24N 35°53' W 022°60'1010.8
2014-Nov-23 02:30N 35°53' W 023°12'1110.8
2014-Nov-23 01:30N 35°53' W 023°25'1010.7
2014-Nov-23 00:33N 35°53' W 023°38'1110.7
2014-Nov-22 23:33N 35°53' W 023°51'1110.7
2014-Nov-22 22:33N 35°53' W 024°04'1110.8
2014-Nov-22 21:33N 35°53' W 024°17'1110.9
2014-Nov-22 20:33N 35°53' W 024°31'1110.9
2014-Nov-22 19:33N 35°53' W 024°44'1111.0
2014-Nov-22 18:33N 35°53' W 024°58'1110.9
2014-Nov-22 17:33N 35°53' W 025°11'1111.0
2014-Nov-22 16:33N 35°53' W 025°25'1110.7
2014-Nov-22 15:33N 35°53' W 025°38'1110.9
2014-Nov-22 14:33N 35°53' W 025°51'1210.9
2014-Nov-22 13:28N 35°53' W 026°06'35210.7
2014-Nov-21 04:28N 35°52' W 033°21'1010.7
2014-Nov-21 03:32N 35°52' W 033°33'1110.7
2014-Nov-21 02:33N 35°52' W 033°46'1110.6
2014-Nov-21 01:33N 35°52' W 033°59'  
Track history (hours):
 
Tides and Currents Weather Stations Pressure Air Temp Water Temp Dewpoint Dewpoint Depression Visibility Wind Speed Wind Dir Waves Ship Positions

Marina

Last reported at 2014-Nov-29 21:32 UTC. Time now 2014-Dec-22 06:23 UTC.
Position N 36°33' E 015°23'.
Warning: this ship's position is 22 days out of date.

Length 225 m; draft 13.9 m.

Type: Cargo ship. MMSI: 239651000.

Date/timePositionNaut miles runAvg speedWind from/ knotsBaromVisibWave heightAir tempDewpointWater temp
2014-Nov-29 21:32N 36°33' E 015°23'1110.8
2014-Nov-29 20:33N 36°31' E 015°10'1111.0
2014-Nov-29 19:33N 36°29' E 014°57'1111.1
2014-Nov-29 18:33N 36°26' E 014°43'1110.7
2014-Nov-29 17:33N 36°26' E 014°30'1111.2
2014-Nov-29 16:33N 36°29' E 014°17'1111.3
2014-Nov-29 15:33N 36°32' E 014°03'1111.3
2014-Nov-29 14:33N 36°36' E 013°50'1111.1
2014-Nov-29 13:32N 36°38' E 013°36'1110.8
2014-Nov-29 12:33N 36°41' E 013°23'1111.1
2014-Nov-29 11:33N 36°44' E 013°10'1111.0
2014-Nov-29 10:33N 36°47' E 012°57'1110.7
2014-Nov-29 09:33N 36°50' E 012°44'1610.8
2014-Nov-29 08:06N 36°54' E 012°25'41211.6
2014-Nov-27 20:32N 37°09' E 003°50'43912.4
2014-Nov-26 09:17N 35°60' W 005°10'1216.2
2014-Nov-26 08:33N 35°58' W 005°24'  
2014-Nov-23 19:05N 35°53' W 019°38'610.8
2014-Nov-23 18:33N 35°53' W 019°45'1610.8
2014-Nov-23 17:07N 35°53' W 020°04'610.5
2014-Nov-23 16:32N 35°53' W 020°11'1010.3
2014-Nov-23 15:32N 35°53' W 020°24'1010.4
2014-Nov-23 14:33N 35°53' W 020°37'1210.3
2014-Nov-23 13:23N 35°53' W 020°52'1010.3
2014-Nov-23 12:23N 35°53' W 021°04'910.3
2014-Nov-23 11:32N 35°53' W 021°15'1010.3
2014-Nov-23 10:32N 35°53' W 021°28'1110.3
2014-Nov-23 09:27N 35°53' W 021°42'1210.1
2014-Nov-23 08:14N 35°53' W 021°57'810.2
2014-Nov-23 07:25N 35°53' W 022°07'1110.5
2014-Nov-23 06:24N 35°53' W 022°20'1110.4
2014-Nov-23 05:21N 35°53' W 022°34'1110.8
2014-Nov-23 04:19N 35°53' W 022°48'1010.9
2014-Nov-23 03:24N 35°53' W 022°60'1010.8
2014-Nov-23 02:30N 35°53' W 023°12'1110.8
2014-Nov-23 01:30N 35°53' W 023°25'1010.7
2014-Nov-23 00:33N 35°53' W 023°38'1110.7
2014-Nov-22 23:33N 35°53' W 023°51'1110.7
2014-Nov-22 22:33N 35°53' W 024°04'1110.8
2014-Nov-22 21:33N 35°53' W 024°17'1110.9
2014-Nov-22 20:33N 35°53' W 024°31'1110.9
2014-Nov-22 19:33N 35°53' W 024°44'1111.0
2014-Nov-22 18:33N 35°53' W 024°58'1110.9
2014-Nov-22 17:33N 35°53' W 025°11'1111.0
2014-Nov-22 16:33N 35°53' W 025°25'1110.7
2014-Nov-22 15:33N 35°53' W 025°38'1110.9
2014-Nov-22 14:33N 35°53' W 025°51'1210.9
2014-Nov-22 13:28N 35°53' W 026°06'35210.7
2014-Nov-21 04:28N 35°52' W 033°21'1010.7
2014-Nov-21 03:32N 35°52' W 033°33'1110.7
2014-Nov-21 02:33N 35°52' W 033°46'1110.6
2014-Nov-21 01:33N 35°52' W 033°59'  

Dump ship's entire track history